Location: Roc des P�zouls
(43.9667°N, 3.5500°E)
Time: 05:10:41
(UTC+00:00)

USA 234 - Pass Details

Date: 14 November 2019
Orbit: 1099 x 1108 km, 123.0° (Epoch: 30 November)

Event Time Altitude Azimuth Distance (km) Brightness Sun altitude
Rises 04:21:13 0° 73° (ENE) 3,916 7.3 -24.8°
Reaches altitude 10° 04:24:02 10° 63° (ENE) 2,959 6.3 -24.3°
Maximum altitude 04:29:26 29° 6° (N) 1,902 4.5 -23.3°
Enters shadow 04:32:16 21° 328° (NNW) 2,246 4.6 -22.8°
